Le nostre stazioni meteo in Italia

Pubblicità
Il mio iltempo24.it
Kinbrace, Gran Bretagna (99016): Temperatura & dewpoint: 10.01.2017 14:00:00 - 16.01.2017 14:00:00 (GMT)Kinbrace, Gran Bretagna (99016): velocità del vento & gusts: 10.01.2017 14:00:00 - 16.01.2017 14:00:00 (GMT)Kinbrace, Gran Bretagna (99016): direzione del vento: 10.01.2017 14:00:00 - 16.01.2017 14:00:00 (GMT)Kinbrace, Gran Bretagna (99016): precipitazioni: 10.01.2017 14:00:00 - 16.01.2017 14:00:00 (GMT)
Data & Tempo tt [°C] td [°C] ff [km/h] ff [kn] fx [km/h] fx [kn] dd rr [mm]
16.01.2017 14:00:00 7,0 6,2 13 7 - - SSO 0,0
16.01.2017 13:00:00 7,4 6,8 5 3 - - SSO 0,0
16.01.2017 12:00:00 6,6 6,3 11 6 - - SSO 0,0
16.01.2017 11:00:00 6,2 5,9 18 10 - - SO 0,0
16.01.2017 10:00:00 4,1 3,7 8 4 - - SE 0,0
16.01.2017 09:00:00 2,9 2,6 5 3 - - NE 0,0
16.01.2017 08:00:00 3,0 2,8 11 6 - - E 0,0
16.01.2017 07:00:00 3,0 2,9 9 5 - - E 0,0
16.01.2017 06:00:00 3,0 2,8 4 2 - - E 0,0
16.01.2017 05:00:00 3,2 3,0 8 4 - - ESE 0,0
16.01.2017 04:00:00 3,1 3,0 5 3 - - SSE 0,0
16.01.2017 03:00:00 2,7 2,6 5 3 - - SE 0,0
16.01.2017 02:00:00 2,4 2,2 4 2 - - ESE 0,0
16.01.2017 01:00:00 3,3 3,2 4 2 - - SE 0,0
16.01.2017 00:00:00 2,8 2,6 5 3 - - SSE 0,0
15.01.2017 23:00:00 2,6 2,5 2 1 - - SSE 0,0
15.01.2017 22:00:00 2,8 2,7 4 2 - - E 0,0
15.01.2017 21:00:00 2,3 2,1 4 2 - - SSE 0,0
15.01.2017 20:00:00 1,9 1,8 8 4 - - S 0,2
15.01.2017 19:00:00 2,5 2,4 4 2 - - SE 0,0
15.01.2017 18:00:00 2,3 2,1 2 1 - - SE 0,4
15.01.2017 17:00:00 2,2 2,1 2 1 - - S 0,0
15.01.2017 16:00:00 2,4 2,3 5 3 - - E 0,4
15.01.2017 15:00:00 2,6 2,4 2 1 - - ESE 0,4
15.01.2017 14:00:00 2,4 2,3 4 2 - - E 0,4
15.01.2017 13:00:00 2,6 2,5 5 3 - - E 0,6
15.01.2017 12:00:00 2,1 2,0 5 3 - - ESE 0,4
15.01.2017 11:00:00 2,3 2,1 4 2 - - ESE 0,2
15.01.2017 10:00:00 3,3 3,1 5 3 - - N 0,6
15.01.2017 09:00:00 2,6 2,5 4 2 - - NNO 0,2
15.01.2017 08:00:00 3,6 3,4 9 5 - - N 0,6
15.01.2017 07:00:00 3,0 2,8 4 2 - - N 0,4
15.01.2017 06:00:00 2,2 2,0 5 3 - - SE 0,4
15.01.2017 05:00:00 1,5 1,2 5 3 - - SE 0,2
15.01.2017 04:00:00 1,7 1,4 9 5 - - ESE 0,6
15.01.2017 03:00:00 1,6 1,1 9 5 - - E 1,4
15.01.2017 02:00:00 - - - - - - - -
15.01.2017 01:00:00 - - - - - - - -
15.01.2017 00:00:00 - - - - - - - -
14.01.2017 23:00:00 - - - - - - - -
14.01.2017 22:00:00 - - - - - - - -
14.01.2017 21:00:00 - - - - - - - -
14.01.2017 20:00:00 - - - - - - - -
14.01.2017 19:00:00 - - - - - - - -
14.01.2017 18:00:00 - - - - - - - -
14.01.2017 17:00:00 - - - - - - - -
14.01.2017 16:00:00 - - - - - - - -
14.01.2017 15:00:00 - - - - - - - -
14.01.2017 14:00:00 - - - - - - - -
14.01.2017 13:00:00 - - - - - - - -
14.01.2017 12:00:00 - - - - - - - -
14.01.2017 11:00:00 - - - - - - - -
14.01.2017 10:00:00 - - - - - - - -
14.01.2017 09:00:00 - - - - - - - -
14.01.2017 08:00:00 - - - - - - - -
14.01.2017 07:00:00 - - - - - - - -
14.01.2017 06:00:00 - - - - - - - 0,0
14.01.2017 05:00:00 - - - - - - - -
14.01.2017 04:00:00 - - - - - - - -
14.01.2017 03:00:00 - - - - - - - -
14.01.2017 02:00:00 - - - - - - - -
14.01.2017 01:00:00 -2,1 -3,0 11 6 - - N 0,0
14.01.2017 00:00:00 0,0 -0,5 16 9 - - NNE 0,0
13.01.2017 23:00:00 0,6 0,2 21 11 - - NNO 0,0
13.01.2017 22:00:00 0,5 0,0 22 12 - - NO 0,0
13.01.2017 21:00:00 0,4 0,0 9 5 - - NO 0,0
13.01.2017 20:00:00 -1,4 -1,8 4 2 - - S 0,0
13.01.2017 19:00:00 -1,5 -1,8 8 4 - - N 0,0
13.01.2017 18:00:00 -3,9 -5,8 5 3 - - ESE 0,0
13.01.2017 17:00:00 -2,3 -3,8 4 2 - - OSO 0,0
13.01.2017 16:00:00 -0,9 -2,6 11 6 - - NO 0,0
13.01.2017 15:00:00 -0,5 -2,8 21 11 - - NO 0,0
13.01.2017 14:00:00 -0,6 -2,3 24 13 48 26 N 0,2
13.01.2017 13:00:00 0,1 -2,5 26 14 59 32 NO 0,6
13.01.2017 12:00:00 1,0 -3,3 24 13 - - NNO 0,0
13.01.2017 11:00:00 0,2 -1,6 28 15 50 27 NNO 0,2
13.01.2017 10:00:00 0,3 -0,6 29 16 76 41 N 0,2
13.01.2017 09:00:00 1,3 -1,1 41 22 68 37 N -
13.01.2017 08:00:00 1,4 -1,0 42 23 74 40 NNO 0,6
13.01.2017 07:00:00 1,7 -1,6 46 25 70 38 NNO 1,0
13.01.2017 06:00:00 1,3 -0,2 37 20 70 38 NNO 0,8
13.01.2017 05:00:00 1,3 0,2 42 23 74 40 NNO 0,2
13.01.2017 04:00:00 2,2 -0,3 48 26 78 42 NNO 0,0
13.01.2017 03:00:00 2,5 0,2 59 32 96 52 N 0,0
13.01.2017 02:00:00 2,5 1,4 61 33 89 48 N 0,0
13.01.2017 01:00:00 0,4 0,2 42 23 65 35 NO 0,0
13.01.2017 00:00:00 0,5 0,2 44 24 67 36 NO 0,0
12.01.2017 23:00:00 -0,1 -0,3 46 25 67 36 NO 0,0
12.01.2017 22:00:00 -0,5 -1,5 34 18 46 25 ONO 0,0
12.01.2017 21:00:00 -1,4 -2,5 37 20 54 29 NO 0,0
12.01.2017 20:00:00 -1,3 -3,5 34 18 50 27 NO 0,0
12.01.2017 19:00:00 -1,9 -4,0 22 12 52 28 NNO 0,0
12.01.2017 18:00:00 -0,1 -2,2 29 16 50 27 NNO 0,0
12.01.2017 17:00:00 0,2 -0,7 22 12 - - NNO 0,0
12.01.2017 16:00:00 0,1 -0,1 8 4 - - ONO 0,0
12.01.2017 15:00:00 -0,1 -0,3 8 4 - - O 0,0
12.01.2017 14:00:00 0,0 -0,2 9 5 - - NNO 0,0
12.01.2017 13:00:00 -0,1 -0,3 13 7 54 29 O 0,0
12.01.2017 12:00:00 0,2 -0,4 26 14 - - O 0,0
12.01.2017 11:00:00 -0,1 -1,3 13 7 - - ONO 0,0
12.01.2017 10:00:00 -0,2 -0,7 16 9 - - O 0,0
12.01.2017 09:00:00 0,4 -1,4 21 11 - - O 0,0
12.01.2017 08:00:00 0,2 -1,9 18 10 59 32 ONO 0,0
12.01.2017 07:00:00 0,7 -1,0 37 20 55 30 ONO 0,2
12.01.2017 06:00:00 0,9 -1,6 29 16 50 27 ONO 0,2
12.01.2017 05:00:00 0,2 -0,2 22 12 55 30 ONO 0,0
12.01.2017 04:00:00 0,0 -0,4 34 18 63 34 ONO 0,4
12.01.2017 03:00:00 0,7 0,0 26 14 61 33 O 0,2
12.01.2017 02:00:00 0,5 0,1 26 14 74 40 ONO 0,2
12.01.2017 01:00:00 1,3 -1,1 29 16 70 38 ONO 0,8
12.01.2017 00:00:00 1,8 -0,6 39 21 63 34 ONO 0,6
11.01.2017 23:00:00 1,0 0,0 28 15 68 37 NO 1,0
11.01.2017 22:00:00 1,6 -0,9 42 23 80 43 ONO 1,0
11.01.2017 21:00:00 1,5 -0,4 35 19 85 46 ONO 0,6
11.01.2017 20:00:00 1,7 -0,4 34 18 67 36 ONO 0,8
11.01.2017 19:00:00 1,4 0,2 31 17 78 42 ONO 1,4
11.01.2017 18:00:00 1,2 0,4 28 15 67 36 ONO 1,2
11.01.2017 17:00:00 0,6 0,2 37 20 80 43 ONO 0,6
11.01.2017 16:00:00 2,5 -0,1 46 25 72 39 ONO 0,4
11.01.2017 15:00:00 2,1 0,5 44 24 74 40 ONO 0,4
11.01.2017 14:00:00 2,5 1,1 37 20 68 37 ONO 1,8
11.01.2017 13:00:00 2,2 1,0 50 27 81 44 ONO 1,6
11.01.2017 12:00:00 3,1 1,0 42 23 76 41 ONO 0,4
11.01.2017 11:00:00 2,8 0,7 42 23 94 51 NO 1,2
11.01.2017 10:00:00 3,3 1,9 39 21 72 39 NO 0,8
11.01.2017 09:00:00 3,2 1,8 31 17 72 39 ONO 1,2
11.01.2017 08:00:00 4,0 1,9 35 19 78 42 ONO 1,0
11.01.2017 07:00:00 3,5 2,0 35 19 78 42 NO 1,2
11.01.2017 06:00:00 3,2 2,0 31 17 - - NO 1,4
11.01.2017 05:00:00 3,5 1,9 50 27 100 54 ONO 0,6
11.01.2017 04:00:00 4,7 2,0 50 27 100 54 ONO 0,2
11.01.2017 03:00:00 5,6 3,1 52 28 87 47 ONO 0,8
11.01.2017 02:00:00 6,0 4,5 54 29 102 55 ONO 1,8
11.01.2017 01:00:00 8,0 4,7 67 36 96 52 ONO 1,2
11.01.2017 00:00:00 9,0 7,8 31 17 59 32 OSO 0,8
10.01.2017 23:00:00 5,6 4,6 21 11 - - S 0,2
10.01.2017 22:00:00 5,3 3,2 15 8 - - S 0,0
10.01.2017 21:00:00 5,8 3,5 13 7 - - SSO 0,0
10.01.2017 20:00:00 6,3 3,7 15 8 - - O 0,0
10.01.2017 19:00:00 5,7 2,8 22 12 - - O 0,0
10.01.2017 18:00:00 5,2 3,6 22 12 - - ONO 0,0
10.01.2017 17:00:00 5,3 2,8 29 16 46 25 ONO 0,0
10.01.2017 16:00:00 6,1 3,8 35 19 55 30 ONO 0,2
10.01.2017 15:00:00 6,8 4,5 24 13 52 28 ONO 0,0
10.01.2017 14:00:00 7,7 5,6 16 9 - - O 0,0

tt = Temperatura
td = dewpoint
ff = velocità del vento
fx = gusts
dd = direzione del vento
rr = precipitazioni

Stazioni seguenti

WeatherPro
AMSI
MeteoEarth